This is the latest recevied weather packets stored in our database for station/object KI7JYE. If no packets are shown the sender has not sent any weather packets the latest 1 day(s).
| Time | Temp. | Humidity | Pressure | Rain* | Wind** | Luminosity | Snow |
|---|---|---|---|---|---|---|---|
| 1777996800 | 13.33° C | 85% | 1015.1 hPa | 0 mm | 0 m/s | 116 W/m² | - |
| 1777996497 | 13.33° C | 85% | 1015.1 hPa | 0 mm | 0 m/s | 131 W/m² | - |
| 1777996193 | 13.33° C | 86% | 1015.1 hPa | 0 mm | 0.89 m/s, 189° | 138 W/m² | - |
| 1777995890 | 12.78° C | 86% | 1015.3 hPa | 0 mm | 0 m/s | 186 W/m² | - |
| 1777995586 | 12.78° C | 86% | 1015.2 hPa | 0 mm | 0 m/s | 177 W/m² | - |
| 1777995284 | 12.78° C | 86% | 1015 hPa | 0 mm | 1.79 m/s, 229° | 209 W/m² | - |
| 1777994980 | 12.78° C | 88% | 1014.9 hPa | 0 mm | 0.45 m/s, 234° | 174 W/m² | - |
| 1777994677 | 12.78° C | 88% | 1015.2 hPa | 0 mm | 0.45 m/s, 234° | 135 W/m² | - |
| 1777994372 | 12.22° C | 89% | 1015 hPa | 0 mm | 0 m/s | 85 W/m² | - |
| 1777994067 | 12.78° C | 89% | 1014.9 hPa | 0 mm | 0 m/s | 108 W/m² | - |
| 1777993760 | 12.22° C | 89% | 1015.1 hPa | 0 mm | 0 m/s | 104 W/m² | - |
| 1777993456 | 12.22° C | 90% | 1015.1 hPa | 0 mm | 0 m/s | 94 W/m² | - |
| 1777993151 | 12.22° C | 90% | 1014.9 hPa | 0 mm | 0 m/s | 76 W/m² | - |
| 1777992849 | 12.22° C | 90% | 1015 hPa | 0 mm | 0.45 m/s, 217° | 65 W/m² | - |
| 1777992547 | 12.22° C | 90% | 1014.9 hPa | 0 mm | 0.89 m/s, 194° | 56 W/m² | - |
| 1777992245 | 11.67° C | 90% | 1014.8 hPa | 0 mm | 0.89 m/s, 191° | 62 W/m² | - |
| 1777991941 | 11.67° C | 91% | 1014.6 hPa | 0 mm | 0.45 m/s, 228° | 59 W/m² | - |
| 1777991639 | 11.67° C | 90% | 1014.9 hPa | 0 mm | 0.45 m/s, 212° | 49 W/m² | - |
| 1777991336 | 11.67° C | 90% | 1014.6 hPa | 0 mm | 0 m/s | 52 W/m² | - |
| 1777991033 | 11.67° C | 91% | 1014.7 hPa | 0 mm | 0 m/s | 46 W/m² | - |
| 1777990730 | 11.67° C | 91% | 1014.7 hPa | 0 mm | 0 m/s | 43 W/m² | - |
| 1777990428 | 11.67° C | 91% | 1014.3 hPa | 0 mm | 0 m/s | 38 W/m² | - |
| 1777990124 | 11.67° C | 91% | 1014.5 hPa | 0 mm | 0 m/s | 41 W/m² | - |
| 1777989821 | 11.67° C | 91% | 1014.4 hPa | 0 mm | 0 m/s | 35 W/m² | - |
| 1777989518 | 11.67° C | 91% | 1014.3 hPa | 0 mm | 0 m/s | 29 W/m² | - |
* Rain latest hour (hover to see other rain measurements)
** Current wind speed in m/s (hover to see current wind gust speed)